Weather History for KSHD - January, 2014

Change the Weather History Date:

Saturday, January 25, 2014

  Actual Average Record
Temperature  
Mean Temperature 24 °F -  
Max Temperature 32 °F 42 °F 62 °F (2012)
Min Temperature 15 °F 23 °F 9 °F (2013)
Degree Days  
Heating Degree Days 42    
Moisture  
Dew Point 7 °F    
Average Humidity 45    
Maximum Humidity 81    
Minimum Humidity 30    
Precipitation  
Precipitation 0.00 in - - ()
Sea Level Pressure  
Sea Level Pressure 29.65 in    
Wind  
Wind Speed 13 mph (SW)    
Max Wind Speed 23 mph    
Max Gust Speed 33 mph    
Visibility 10 miles    
Events Snow    
Averages and records for this station are not official NWS values.
T = Trace of Precipitation, MM = Missing Value Source: NWS Daily Summary

Daily Weather History Graph

Daily Weather History Graph

Search for Another Location

Airport or City:

Trip Planner

Search our weather history database for the weather conditions in past years. The results will help you decide how hot, cold, wet, or windy it might be!

Date:

Astronomy

Jan. 25, 2014 Rise Set
Actual Time 7:25 AM EST 5:30 PM EST
Civil Twilight 6:57 AM EST 5:58 PM EST
Nautical Twilight 6:25 AM EST 6:30 PM EST
Astronomical Twilight 5:54 AM EST 7:01 PM EST
Moon 1:56 AM EST (1/25) 12:29 PM EST (1/25)
Length of Visible Light 11h 00m
Length of Day
10h 04m
Waning Crescent, 34% of the Moon is Illuminated
Jan 25
Waning Crescent
Jan 30
New
Feb 6
First Quarter
Feb 14
Full
Feb 22
Last Quarter

Hourly Weather History & Observations

Time (EST) Temp. Windchill Dew Point Humidity Pressure Visibility Wind Dir Wind Speed Gust Speed Precip Events Conditions
12:15 AM 15.8 °F 6.1 °F -3.8 °F 42% 30.00 in 10.0 mi South 6.9 mph - N/A   Clear
12:35 AM 17.6 °F 5.7 °F -4.4 °F 38% 29.98 in 10.0 mi South 10.4 mph 17.3 mph N/A   Clear
12:55 AM 18.0 °F 3.6 °F -3.8 °F 38% 29.97 in 10.0 mi SSW 15.0 mph - N/A   Clear
1:15 AM 18.5 °F 4.3 °F -4.0 °F 37% 29.96 in 10.0 mi South 15.0 mph - N/A   Clear
1:35 AM 19.4 °F 5.5 °F -4.2 °F 35% 29.95 in 10.0 mi SSW 15.0 mph - N/A   Clear
1:55 AM 19.9 °F 6.2 °F -4.0 °F 35% 29.93 in 10.0 mi SSW 15.0 mph 24.2 mph N/A   Clear
2:15 AM 20.3 °F 7.2 °F -4.4 °F 34% 29.92 in 10.0 mi SSW 13.8 mph 23.0 mph N/A   Clear
2:35 AM 20.1 °F 7.5 °F -4.0 °F 35% 29.90 in 10.0 mi SSW 12.7 mph 21.9 mph N/A   Clear
2:55 AM 19.6 °F 7.4 °F -3.8 °F 36% 29.88 in 10.0 mi SSW 11.5 mph - N/A   Clear
3:15 AM 19.4 °F 7.9 °F -3.8 °F 36% 29.87 in 10.0 mi SSW 10.4 mph - N/A   Clear
3:35 AM 19.9 °F 7.9 °F -4.2 °F 35% 29.85 in 10.0 mi SSW 11.5 mph - N/A   Clear
3:55 AM 20.1 °F 7.5 °F -3.8 °F 35% 29.84 in 10.0 mi SSW 12.7 mph 16.1 mph N/A   Clear
4:15 AM 20.3 °F 7.7 °F -3.8 °F 35% 29.81 in 10.0 mi SSW 12.7 mph 19.6 mph N/A   Clear
4:35 AM 20.5 °F 8.0 °F -3.3 °F 35% 29.80 in 10.0 mi South 12.7 mph - N/A   Clear
4:55 AM 21.2 °F 7.3 °F -2.9 °F 35% 29.79 in 10.0 mi South 16.1 mph - N/A   Clear
5:15 AM 21.7 °F 9.0 °F -3.1 °F 34% 29.78 in 10.0 mi South 13.8 mph - N/A   Clear
5:35 AM 22.1 °F 9.5 °F -2.9 °F 33% 29.76 in 10.0 mi SSW 13.8 mph - N/A   Clear
5:55 AM 22.5 °F 9.4 °F -2.9 °F 33% 29.76 in 10.0 mi SSW 15.0 mph 18.4 mph N/A   Clear
6:15 AM 23.0 °F 10.6 °F -3.3 °F 32% 29.74 in 10.0 mi SSW 13.8 mph 19.6 mph N/A   Scattered Clouds
6:35 AM 23.2 °F 10.8 °F -2.2 °F 33% 29.74 in 10.0 mi SSW 13.8 mph 18.4 mph N/A   Mostly Cloudy
6:55 AM 23.7 °F 11.0 °F -2.4 °F 32% 29.73 in 10.0 mi SSW 15.0 mph - N/A   Overcast
7:15 AM 23.9 °F 12.9 °F -1.8 °F 33% 29.71 in 10.0 mi South 11.5 mph 17.3 mph N/A   Overcast
7:35 AM 24.6 °F 13.2 °F -2.2 °F 31% 29.70 in 10.0 mi South 12.7 mph 19.6 mph N/A   Overcast
7:55 AM 24.8 °F 13.4 °F -1.3 °F 32% 29.68 in 10.0 mi South 12.7 mph - N/A   Overcast
8:15 AM 25.5 °F 13.8 °F -2.0 °F 30% 29.66 in 10.0 mi SSW 13.8 mph 20.7 mph N/A   Scattered Clouds
8:35 AM 25.9 °F 14.8 °F -1.7 °F 30% 29.65 in 10.0 mi SSW 12.7 mph 20.7 mph N/A   Clear
8:55 AM 26.2 °F 14.2 °F -1.3 °F 30% 29.64 in 10.0 mi SW 15.0 mph 19.6 mph N/A   Clear
9:15 AM 26.6 °F 14.3 °F -1.3 °F 30% 29.64 in 10.0 mi SW 16.1 mph 23.0 mph N/A   Clear
9:35 AM 27.0 °F 14.3 °F -0.2 °F 31% 29.64 in 10.0 mi SW 17.3 mph 25.3 mph N/A   Clear
9:55 AM 27.3 °F 17.1 °F 0.3 °F 31% 29.63 in 10.0 mi SW 11.5 mph - N/A   Clear
10:15 AM 27.9 °F 17.8 °F 2.1 °F 33% 29.62 in 10.0 mi SW 11.5 mph 17.3 mph N/A   Clear
10:35 AM 28.9 °F 19.2 °F 2.5 °F 32% 29.61 in 10.0 mi SW 11.5 mph 20.7 mph N/A   Clear
10:55 AM 29.5 °F 19.9 °F 6.1 °F 37% 29.59 in 10.0 mi SW 11.5 mph 19.6 mph N/A   Clear
11:15 AM 29.1 °F 17.5 °F 7.5 °F 40% 29.59 in 10.0 mi SSW 16.1 mph 21.9 mph N/A   Scattered Clouds
11:35 AM 30.2 °F 17.8 °F 10.4 °F 44% 29.58 in 10.0 mi SW 19.6 mph 31.1 mph N/A   Overcast
11:55 AM 30.0 °F 16.9 °F 12.7 °F 49% 29.55 in 10.0 mi SW 21.9 mph 28.8 mph N/A   Overcast
12:15 PM 29.8 °F 17.7 °F 14.9 °F 54% 29.54 in 10.0 mi SW 18.4 mph 27.6 mph N/A   Scattered Clouds
12:35 PM 30.2 °F 18.1 °F 16.5 °F 57% 29.53 in 10.0 mi SW 18.4 mph 24.2 mph N/A   Mostly Cloudy
12:55 PM 29.8 °F 17.7 °F 16.5 °F 58% 29.51 in 10.0 mi SSW 18.4 mph 23.0 mph N/A   Overcast
1:15 PM 30.2 °F 19.8 °F 17.1 °F 58% 29.49 in 10.0 mi SSW 13.8 mph - N/A   Overcast
1:35 PM 30.9 °F 19.4 °F 17.6 °F 58% 29.49 in 10.0 mi SW 17.3 mph - N/A   Overcast
1:55 PM 31.1 °F 21.4 °F 18.0 °F 58% 29.47 in 10.0 mi SW 12.7 mph - N/A   Overcast
2:15 PM 31.8 °F 21.4 °F 17.6 °F 56% 29.45 in 10.0 mi SW 15.0 mph 21.9 mph N/A   Overcast
2:35 PM 32.0 °F 21.6 °F 18.0 °F 56% 29.45 in 10.0 mi SW 15.0 mph 21.9 mph N/A   Overcast
2:55 PM 32.0 °F 22.5 °F 18.0 °F 56% 29.46 in 10.0 mi SW 12.7 mph 25.3 mph N/A   Overcast
3:15 PM 32.0 °F 20.1 °F 18.1 °F 57% 29.47 in 10.0 mi SW 19.6 mph 28.8 mph N/A   Overcast
3:35 PM 31.6 °F 20.4 °F 19.0 °F 60% 29.48 in 10.0 mi SW 17.3 mph 25.3 mph N/A   Overcast
3:55 PM 31.5 °F 20.9 °F 19.4 °F 61% 29.48 in 10.0 mi SW 15.0 mph 19.6 mph N/A   Overcast
4:15 PM 31.1 °F 23.1 °F 18.5 °F 60% 29.48 in 10.0 mi WSW 9.2 mph - N/A   Overcast
4:35 PM 30.7 °F 20.0 °F 16.7 °F 56% 29.48 in 10.0 mi WSW 15.0 mph 19.6 mph N/A   Scattered Clouds
4:55 PM 30.9 °F 20.7 °F 16.2 °F 54% 29.49 in 10.0 mi WSW 13.8 mph 24.2 mph N/A   Mostly Cloudy
5:15 PM 30.4 °F 19.5 °F 16.5 °F 56% 29.49 in 10.0 mi WSW 15.0 mph 20.7 mph N/A   Mostly Cloudy
5:35 PM 30.7 °F 18.5 °F 16.3 °F 55% 29.51 in 10.0 mi WSW 19.6 mph 24.2 mph N/A   Overcast
5:55 PM 30.2 °F 21.3 °F 14.9 °F 53% 29.52 in 10.0 mi WSW 10.4 mph 21.9 mph N/A   Mostly Cloudy
6:15 PM 29.8 °F 22.2 °F 14.9 °F 54% 29.52 in 10.0 mi WSW 8.1 mph 18.4 mph N/A   Scattered Clouds
6:35 PM 29.7 °F 22.0 °F 15.4 °F 55% 29.53 in 10.0 mi WSW 8.1 mph - N/A   Overcast
6:55 PM 29.3 °F 20.2 °F 17.1 °F 60% 29.53 in 10.0 mi SW 10.4 mph - N/A   Overcast
7:15 PM 28.4 °F 19.1 °F 17.6 °F 64% 29.53 in 10.0 mi SW 10.4 mph - N/A   Mostly Cloudy
7:35 PM 27.5 °F 19.3 °F 17.1 °F 65% 29.54 in 10.0 mi SW 8.1 mph - N/A   Mostly Cloudy
7:55 PM 28.4 °F 16.6 °F 17.4 °F 63% 29.52 in 10.0 mi SW 16.1 mph - N/A   Overcast
8:15 PM 29.1 °F 16.7 °F 16.9 °F 60% 29.52 in 10.0 mi SW 18.4 mph 25.3 mph N/A   Scattered Clouds
8:35 PM 28.9 °F 19.8 °F 16.7 °F 60% 29.53 in 10.0 mi WSW 10.4 mph - N/A   Scattered Clouds
8:55 PM 30.6 °F 19.8 °F 17.2 °F 58% 29.55 in 7.0 mi West 15.0 mph 21.9 mph N/A Snow Light Snow
9:15 PM 28.2 °F 17.2 °F 23.0 °F 81% 29.59 in 1.0 mi West 13.8 mph 24.2 mph N/A Snow Light Snow
10:15 PM 26.1 °F 14.5 °F 6.4 °F 43% 29.63 in 10.0 mi West 13.8 mph 25.3 mph N/A   Clear
10:35 PM 25.5 °F 10.6 °F 6.8 °F 45% 29.64 in 10.0 mi West 23.0 mph 33.4 mph N/A   Clear
10:36 PM 24.8 °F 11.1 °F 6.8 °F 46% 29.64 in 10.0 mi West 18.4 mph 33.4 mph N/A   Clear
10:55 PM 25.0 °F 11.7 °F 4.3 °F 41% 29.65 in 10.0 mi West 17.3 mph 31.1 mph N/A   Clear
11:15 PM 24.6 °F 11.3 °F 3.9 °F 41% 29.66 in 10.0 mi West 17.3 mph 26.5 mph N/A   Clear
11:35 PM 24.3 °F 12.2 °F 1.8 °F 38% 29.69 in 10.0 mi West 13.8 mph 29.9 mph N/A   Clear
11:55 PM 23.2 °F 11.4 °F -0.2 °F 36% 29.71 in 10.0 mi WNW 12.7 mph 18.4 mph N/A   Clear